Location: Casteau
(50.5142°N, 4.0161°E)
Time: 20:36:39
(UTC+00:00)

Transit 2A - Pass Details

Date: 30 July 2021
Orbit: 594 x 964 km, 66.7° (Epoch: 27 September)

Event Time Altitude Azimuth Distance (km) Brightness Sun altitude
Rises 08:04:35 0° 248° (WSW) 2,865 8.6 35.3°
Reaches altitude 10° 08:06:58 10° 259° (WSW) 1,994 7.8 35.6°
Maximum altitude 08:10:59 32° 322° (NW) 1,135 6.8 36.2°
Drops below altitude 10° 08:15:20 10° 26° (NNE) 2,161 8.5 36.9°
Sets 08:18:01 0° 36° (NE) 3,148 9.4 37.3°
